Weather History for Edinburg, TX

Change the Weather History Date:

Thursday, January 3, 2013

  Actual Average (KMFE) Record (KMFE)
Temperature  
Mean Temperature 47 °F 60 °F  
Max Temperature 51 °F 70 °F 89 °F (1982)
Min Temperature 43 °F 50 °F 24 °F (1979)
Degree Days  
Heating Degree Days 18 7  
Month to date heating degree days 21  
Since 1 July heating degree days 258  
Cooling Degree Days 0 2  
Month to date cooling degree days 6  
Year to date cooling degree days 6  
Moisture  
Dew Point 37 °F    
Average Humidity 66    
Maximum Humidity 85    
Minimum Humidity 53    
Precipitation  
Precipitation 0.05 in 0.03 in 0.47 in (1965)
Month to date precipitation 0.09  
Year to date precipitation 0.09  
Sea Level Pressure  
Sea Level Pressure 30.35 in    
Wind  
Wind Speed 10 mph (North)    
Max Wind Speed 15 mph    
Max Gust Speed 18 mph    
Visibility 6 miles    
Events      
T = Trace of Precipitation, MM = Missing Value Source: NWS Daily Summary

Daily Weather History Graph

Daily Weather History Graph

Search for Another Location

Airport:

Trip Planner

Search our weather history database for the weather conditions in past years. The results will help you decide how hot, cold, wet, or windy it might be!

Date:

Astronomy

Jan. 03, 2013 Rise Set
Actual Time 7:21 AM CST 5:53 PM CST
Civil Twilight 6:55 AM CST 6:18 PM CST
Nautical Twilight 6:27 AM CST 6:47 PM CST
Astronomical Twilight 5:59 AM CST 7:15 PM CST
Moon 11:49 PM CST (1/3) 11:10 AM CST (1/3)
Length of Visible Light 11h 22m
Length of Day
10h 32m
Waning Gibbous, 65% of the Moon is Illuminated
Jan 3
Waning Gibbous
Jan 4
Last Quarter
Jan 11
New
Jan 18
First Quarter
Jan 26
Full

Hourly Weather History & Observations

Time (CST) Temp. Windchill Dew Point Humidity Pressure Visibility Wind Dir Wind Speed Gust Speed Precip Events Conditions
12:15 AM 43.9 °F 39.3 °F 39.6 °F 85% 30.29 in 5.0 mi North 8.1 mph - N/A   Overcast
12:35 AM 44.1 °F 39.5 °F 39.7 °F 85% 30.30 in 5.0 mi North 8.1 mph - N/A   Overcast
12:55 AM 44.2 °F 40.3 °F 39.7 °F 84% 30.30 in 5.0 mi North 6.9 mph - N/A   Overcast
1:15 AM 44.4 °F 39.5 °F 39.6 °F 83% 30.30 in 7.0 mi North 9.2 mph - N/A   Overcast
1:35 AM 44.6 °F 40.2 °F 39.6 °F 82% 30.29 in 7.0 mi North 8.1 mph - N/A   Overcast
1:55 AM 44.6 °F 38.8 °F 39.2 °F 81% 30.29 in 7.0 mi North 11.5 mph - N/A   Overcast
2:15 AM 44.6 °F 39.7 °F 39.0 °F 81% 30.29 in 5.0 mi North 9.2 mph - N/A   Haze
2:35 AM 44.6 °F 39.2 °F 39.0 °F 81% 30.29 in 5.0 mi North 10.4 mph - N/A   Haze
2:55 AM 44.6 °F 39.2 °F 38.7 °F 80% 30.29 in 5.0 mi North 10.4 mph - N/A   Haze
3:15 AM 44.6 °F 38.8 °F 38.7 °F 80% 30.29 in 7.0 mi North 11.5 mph - N/A   Overcast
3:35 AM 44.6 °F 39.7 °F 38.7 °F 80% 30.29 in 7.0 mi North 9.2 mph - N/A   Overcast
3:55 AM 44.8 °F 39.9 °F 38.3 °F 78% 30.29 in 5.0 mi North 9.2 mph - N/A   Haze
4:15 AM 45.0 °F 40.1 °F 38.3 °F 77% 30.30 in 7.0 mi North 9.2 mph - N/A   Overcast
4:35 AM 45.0 °F 40.6 °F 38.3 °F 77% 30.30 in 7.0 mi North 8.1 mph - N/A   Overcast
4:55 AM 45.0 °F 39.7 °F 38.1 °F 77% 30.29 in 7.0 mi North 10.4 mph - N/A   Overcast
5:15 AM 45.0 °F 41.2 °F 38.5 °F 78% 30.29 in 7.0 mi North 6.9 mph - N/A   Overcast
5:35 AM 45.0 °F 39.7 °F 37.9 °F 76% 30.30 in 5.0 mi North 10.4 mph - N/A   Haze
5:55 AM 45.0 °F 39.3 °F 37.9 °F 76% 30.31 in 7.0 mi North 11.5 mph - N/A   Overcast
6:15 AM 44.8 °F 38.7 °F 37.8 °F 76% 30.31 in 7.0 mi North 12.7 mph - N/A   Overcast
6:35 AM 45.1 °F 39.9 °F 37.6 °F 75% 30.32 in 7.0 mi North 10.4 mph - N/A   Overcast
6:55 AM 45.1 °F 39.9 °F 37.4 °F 74% 30.33 in 7.0 mi North 10.4 mph - N/A   Overcast
7:15 AM 45.1 °F 39.9 °F 37.4 °F 74% 30.33 in 7.0 mi North 10.4 mph - N/A   Overcast
7:35 AM 45.5 °F 39.9 °F 37.0 °F 72% 30.34 in 7.0 mi North 11.5 mph 17.3 mph N/A   Overcast
7:55 AM 45.5 °F 39.9 °F 37.4 °F 73% 30.34 in 5.0 mi North 11.5 mph - N/A   Haze
8:15 AM 45.5 °F 40.8 °F 37.4 °F 73% 30.36 in 4.0 mi North 9.2 mph - N/A   Haze
8:35 AM 45.7 °F 41.0 °F 37.6 °F 73% 30.36 in 5.0 mi North 9.2 mph - N/A   Haze
8:55 AM 46.0 °F 41.4 °F 37.6 °F 72% 30.36 in 5.0 mi North 9.2 mph - N/A   Haze
9:15 AM 46.4 °F 41.1 °F 37.8 °F 72% 30.38 in 5.0 mi North 11.5 mph - N/A   Haze
9:35 AM 46.6 °F - 37.9 °F 72% 30.38 in 4.0 mi North 11.5 mph 17.3 mph N/A   Haze
9:55 AM 47.3 °F - 38.1 °F 70% 30.38 in 5.0 mi North 12.7 mph 16.1 mph N/A   Haze
10:15 AM 47.3 °F - 37.6 °F 69% 30.38 in 5.0 mi North 13.8 mph - N/A   Haze
10:35 AM 47.7 °F - 37.4 °F 68% 30.38 in 5.0 mi North 12.7 mph 17.3 mph N/A   Haze
10:55 AM 48.2 °F - 37.6 °F 67% 30.38 in 5.0 mi North 13.8 mph - N/A   Haze
11:15 AM 48.4 °F - 37.9 °F 67% 30.39 in 5.0 mi NNW 12.7 mph 17.3 mph N/A   Haze
11:35 AM 48.6 °F - 37.9 °F 67% 30.38 in 5.0 mi North 12.7 mph - N/A   Haze
11:55 AM 49.1 °F - 38.1 °F 66% 30.38 in 5.0 mi North 12.7 mph - N/A   Haze
12:15 PM 49.6 °F - 37.6 °F 63% 30.37 in 5.0 mi North 12.7 mph - N/A   Haze
12:35 PM 50.0 °F - 38.1 °F 64% 30.36 in 5.0 mi NNW 11.5 mph - N/A   Haze
12:55 PM 50.0 °F - 37.2 °F 62% 30.35 in 5.0 mi North 13.8 mph 18.4 mph N/A   Haze
1:15 PM 50.0 °F - 36.3 °F 59% 30.34 in 5.0 mi NNW 13.8 mph 18.4 mph N/A   Haze
2:15 PM 50.9 °F - 36.3 °F 57% 30.33 in 7.0 mi North 13.8 mph 18.4 mph N/A   Overcast
2:35 PM 51.3 °F - 36.0 °F 56% 30.33 in 5.0 mi North 11.5 mph - N/A   Haze
2:55 PM 51.4 °F - 35.4 °F 54% 30.33 in 4.0 mi North 12.7 mph - N/A   Haze
3:35 PM 51.3 °F - 35.4 °F 55% 30.32 in 7.0 mi North 15.0 mph 18.4 mph N/A   Overcast
3:55 PM 51.3 °F - 35.4 °F 55% 30.33 in 7.0 mi North 15.0 mph - N/A   Overcast
4:35 PM 50.9 °F - 35.4 °F 55% 30.34 in 5.0 mi North 12.7 mph - N/A   Haze
4:55 PM 50.5 °F - 35.1 °F 55% 30.35 in 7.0 mi North 15.0 mph - N/A   Overcast
5:15 PM 50.4 °F - 34.5 °F 55% 30.36 in 7.0 mi North 11.5 mph - N/A   Overcast
5:35 PM 50.2 °F - 33.8 °F 53% 30.36 in 7.0 mi North 12.7 mph 17.3 mph N/A   Overcast
6:15 PM 50.0 °F - 34.3 °F 55% 30.38 in 7.0 mi North 9.2 mph - N/A   Overcast
6:35 PM 50.0 °F - 34.7 °F 56% 30.38 in 7.0 mi North 8.1 mph - N/A   Overcast
6:55 PM 50.0 °F - 34.7 °F 56% 30.39 in 7.0 mi North 6.9 mph - N/A   Overcast
7:15 PM 50.0 °F - 34.7 °F 56% 30.39 in 10.0 mi North 9.2 mph - N/A   Overcast
7:35 PM 50.0 °F - 34.2 °F 55% 30.39 in 7.0 mi North 9.2 mph - N/A   Overcast
7:55 PM 50.0 °F - 34.0 °F 54% 30.39 in 7.0 mi North 9.2 mph - N/A   Overcast
8:15 PM 50.0 °F - 33.6 °F 53% 30.39 in 7.0 mi North 8.1 mph - N/A   Overcast
8:35 PM 50.0 °F - 34.0 °F 54% 30.39 in 7.0 mi North 6.9 mph - N/A   Overcast
8:55 PM 50.0 °F - 34.3 °F 55% 30.39 in 7.0 mi North 5.8 mph - N/A   Overcast
9:15 PM 50.0 °F - 34.3 °F 55% 30.39 in 7.0 mi North 6.9 mph - N/A   Overcast
9:35 PM 50.0 °F - 34.0 °F 54% 30.39 in 7.0 mi North 6.9 mph - N/A   Overcast
9:55 PM 50.0 °F - 34.0 °F 54% 30.38 in 7.0 mi North 8.1 mph - N/A   Overcast
10:15 PM 50.0 °F - 33.6 °F 53% 30.38 in 7.0 mi North 8.1 mph - N/A   Overcast
10:35 PM 49.6 °F - 33.8 °F 54% 30.38 in 7.0 mi NNW 8.1 mph - N/A   Overcast
10:55 PM 49.6 °F - 33.6 °F 54% 30.38 in 7.0 mi NNW 8.1 mph - N/A   Overcast
11:15 PM 49.5 °F - 33.8 °F 55% 30.37 in 7.0 mi NNW 6.9 mph - N/A   Overcast
11:35 PM 49.5 °F - 34.0 °F 55% 30.37 in 7.0 mi NNW 6.9 mph - N/A   Overcast
11:55 PM 49.3 °F - 34.3 °F 56% 30.37 in 7.0 mi NW 8.1 mph - N/A   Overcast